Weather History for Tahlequah, OK

Change the Weather History Date:

Monday, October 22, 2012

  Actual Average (KMKO) Record (KMKO)
Temperature  
Mean Temperature 72 °F -  
Max Temperature 77 °F 70 °F 84 °F (2003)
Min Temperature 68 °F 47 °F 32 °F (2006)
Cooling Degree Days 8    
Growing Degree Days 22 (Base 50)    
Moisture  
Dew Point 64 °F    
Average Humidity 76    
Maximum Humidity 88    
Minimum Humidity 65    
Precipitation  
Precipitation 0.02 in - - ()
Sea Level Pressure  
Sea Level Pressure 29.93 in    
Wind  
Wind Speed 9 mph (South)    
Max Wind Speed 18 mph    
Max Gust Speed 25 mph    
Visibility 10 miles    
Events      
Averages and records for this station are not official NWS values.
T = Trace of Precipitation, MM = Missing Value Source: NWS Daily Summary

Daily Weather History Graph

Daily Weather History Graph

Search for Another Location

Airport:

Trip Planner

Search our weather history database for the weather conditions in past years. The results will help you decide how hot, cold, wet, or windy it might be!

Date:

Astronomy

Oct. 22, 2012 Rise Set
Actual Time 7:33 AM CDT 6:34 PM CDT
Civil Twilight 7:07 AM CDT 7:00 PM CDT
Nautical Twilight 6:37 AM CDT 7:30 PM CDT
Astronomical Twilight 6:07 AM CDT 8:00 PM CDT
Moon 2:31 PM CDT 12:34 AM CDT
Length of Visible Light 11h 53m
Length of Day
11h 01m
First Quarter, 56% of the Moon is Illuminated
Oct 22
First Quarter
Oct 29
Full
Nov 6
Last Quarter
Nov 13
New
Nov 20
First Quarter

Hourly Weather History & Observations

Time (CDT) Temp. Dew Point Humidity Pressure Visibility Wind Dir Wind Speed Gust Speed Precip Events Conditions
12:15 AM 71.6 °F 64.4 °F 78% 29.89 in 10.0 mi SE 6.9 mph - N/A   Clear
12:35 AM 71.6 °F 64.4 °F 78% 29.89 in 10.0 mi SE 6.9 mph - N/A   Clear
12:55 AM 71.6 °F 64.4 °F 78% 29.89 in 10.0 mi SSE 8.1 mph - N/A   Clear
1:35 AM 69.8 °F 64.4 °F 83% 29.89 in 10.0 mi SE 6.9 mph - N/A   Clear
1:55 AM 69.8 °F 64.4 °F 83% 29.89 in 10.0 mi SE 6.9 mph - N/A   Clear
2:55 AM 71.6 °F 64.4 °F 78% 29.90 in 10.0 mi SSE 10.4 mph 19.6 mph N/A   Scattered Clouds
3:15 AM 71.6 °F 64.4 °F 78% 29.89 in 10.0 mi SSE 12.7 mph 19.6 mph N/A   Scattered Clouds
3:55 AM 71.6 °F 64.4 °F 78% 29.90 in 10.0 mi SSE 10.4 mph 16.1 mph N/A   Mostly Cloudy
4:55 AM 71.6 °F 64.4 °F 78% 29.90 in 10.0 mi SSE 11.5 mph - N/A   Overcast
5:15 AM 71.6 °F 64.4 °F 78% 29.90 in 10.0 mi South 10.4 mph 18.4 mph N/A   Mostly Cloudy
5:35 AM 71.6 °F 64.4 °F 78% 29.91 in 10.0 mi South 10.4 mph 18.4 mph N/A   Mostly Cloudy
6:15 AM 71.6 °F 64.4 °F 78% 29.92 in 10.0 mi South 10.4 mph 17.3 mph N/A   Mostly Cloudy
7:15 AM 69.8 °F 62.6 °F 78% 29.93 in 10.0 mi SSE 10.4 mph 17.3 mph N/A   Scattered Clouds
7:35 AM 68.0 °F 62.6 °F 83% 29.93 in 10.0 mi South 9.2 mph 16.1 mph N/A   Clear
7:55 AM 68.0 °F 62.6 °F 83% 29.94 in 10.0 mi South 9.2 mph - N/A   Clear
9:35 AM 71.6 °F 64.4 °F 78% 29.95 in 10.0 mi South 13.8 mph 19.6 mph N/A   Mostly Cloudy
9:55 AM 71.6 °F 64.4 °F 78% 29.95 in 10.0 mi South 13.8 mph 21.9 mph N/A   Mostly Cloudy
10:15 AM 73.4 °F 64.4 °F 73% 29.95 in 10.0 mi South 15.0 mph 21.9 mph N/A   Mostly Cloudy
10:35 AM 73.4 °F 64.4 °F 73% 29.95 in 10.0 mi South 16.1 mph 24.2 mph N/A   Mostly Cloudy
10:55 AM 73.4 °F 64.4 °F 73% 29.96 in 10.0 mi South 12.7 mph 25.3 mph N/A   Mostly Cloudy
11:15 AM 73.4 °F 64.4 °F 73% 29.96 in 10.0 mi South 16.1 mph 20.7 mph N/A   Mostly Cloudy
11:35 AM 73.4 °F 64.4 °F 73% 29.95 in 10.0 mi South 18.4 mph 24.2 mph N/A   Mostly Cloudy
12:15 PM 73.4 °F 64.4 °F 73% 29.96 in 10.0 mi South 18.4 mph 25.3 mph N/A   Mostly Cloudy
12:35 PM 73.4 °F 64.4 °F 73% 29.96 in 10.0 mi South 15.0 mph 21.9 mph N/A   Overcast
12:55 PM 73.4 °F 64.4 °F 73% 29.97 in 10.0 mi South 13.8 mph 18.4 mph N/A   Overcast
1:15 PM 73.4 °F 64.4 °F 73% 29.96 in 10.0 mi South 6.9 mph 16.1 mph N/A   Overcast
1:35 PM 73.4 °F 64.4 °F 73% 29.96 in 10.0 mi South 6.9 mph - N/A   Overcast
1:55 PM 73.4 °F 64.4 °F 73% 29.95 in 10.0 mi South 8.1 mph - N/A   Overcast
2:15 PM 73.4 °F 64.4 °F 73% 29.95 in 10.0 mi South 4.6 mph - N/A   Overcast
2:35 PM 73.4 °F 64.4 °F 73% 29.94 in 10.0 mi South 6.9 mph - N/A   Overcast
3:15 PM 75.2 °F 64.4 °F 69% 29.94 in 10.0 mi SSW 10.4 mph 18.4 mph N/A   Scattered Clouds
3:35 PM 73.4 °F 66.2 °F 78% 29.94 in 10.0 mi SSW 9.2 mph - N/A   Scattered Clouds
3:55 PM 77.0 °F 66.2 °F 69% 29.94 in 10.0 mi SSW 10.4 mph - N/A   Scattered Clouds
4:15 PM 77.0 °F 64.4 °F 65% 29.94 in 10.0 mi SSW 10.4 mph - N/A   Scattered Clouds
4:35 PM 77.0 °F 64.4 °F 65% 29.93 in 10.0 mi SSW 11.5 mph 17.3 mph N/A   Scattered Clouds
5:15 PM 75.2 °F 64.4 °F 69% 29.93 in 10.0 mi SSW 6.9 mph - N/A   Scattered Clouds
5:35 PM 77.0 °F 64.4 °F 65% 29.94 in 10.0 mi SSW 6.9 mph - N/A   Clear
5:55 PM 73.4 °F 64.4 °F 73% 29.92 in 10.0 mi South 4.6 mph - N/A   Clear
6:15 PM 73.4 °F 64.4 °F 73% 29.91 in 10.0 mi SSE 6.9 mph - N/A   Clear
6:35 PM 73.4 °F 64.4 °F 73% 29.89 in 10.0 mi SE 5.8 mph - N/A   Clear
6:55 PM 71.6 °F 64.4 °F 78% 29.89 in 10.0 mi SE 9.2 mph - N/A   Clear
7:55 PM 71.6 °F 64.4 °F 78% 29.90 in 10.0 mi SSE 4.6 mph - N/A   Clear
8:35 PM 71.6 °F 64.4 °F 78% 29.92 in 10.0 mi South 3.5 mph - N/A   Clear
9:15 PM 71.6 °F 64.4 °F 78% 29.94 in 10.0 mi SSE 8.1 mph - N/A   Clear
9:55 PM 69.8 °F 66.2 °F 88% 29.95 in 10.0 mi South 6.9 mph - 0.02 in   Scattered Clouds
10:35 PM 69.8 °F 64.4 °F 83% 29.95 in 10.0 mi SSE 5.8 mph - N/A   Clear
11:15 PM 69.8 °F 64.4 °F 83% 29.95 in 10.0 mi SSE 9.2 mph - N/A   Clear
11:55 PM 69.8 °F 64.4 °F 83% 29.94 in 10.0 mi SSE 9.2 mph - N/A   Clear